Погода в Лас-Ленасе

Аргентина     35°08′38″S   70°04′46″W
темп.,
°C
ветер,
м/с
пор.,
м/с
влажн.,
%
обл.,
%
осадки,
мм/ч
давл.,
гПа
погр.,
м
29 июля, чт
чт2900:00−4всв22270 0.0 102410
03:00−4всв11280 0.0 102310
06:00−5с11320 0.0 102110
09:00−3з11270 0.0 102010
12:00+4зсз12190 0.0 1019298
15:00+5з23160 0.0 1017833
18:00+2з33240 0.0 101867
21:00−1з43190 0.0 102125
30 июля, пт
пт3000:00−1з43170 0.0 102123
03:00−2з43120 0.0 102022
06:00−2з44110 0.0 102023
09:00−2зсз54140 0.0 102130
12:00+4з57140 0.0 1020713
15:00+5зсз58140 0.0 1018966
18:00+2зсз46319 0.0 1019419
21:00−1з4440100 0.0 102144
31 июля, сб
сб3100:00−1з44339 0.0 102233
03:00−2зсз44340 0.0 102228
06:00−2з33320 0.0 102221
09:00−3зсз22312 0.0 102410
12:00+3с112375 0.0 1024327
15:00+4с132582 0.0 1023644
18:00+1св2240100 0.0 1025168
21:00−1з1148100 0.0 102716
1 августа, вс
вс100:00−1сз22390 0.0 102710
03:00−2зсз11340 0.0 102710
06:00−2зсз11260 0.0 102510
09:00−1ю11220 0.0 102610
12:00+6всв221432 0.0 1027247
15:00+8св22117 0.0 1023465
18:00+6св21200 0.0 102315
21:00+1всв11201 0.0 102410
2 августа, пн
пн200:00+1всв21121 0.0 102410
03:000св1185 0.0 102310
06:000з11265 0.0 102210
09:00+1з22124 0.0 102210
12:00+10зсз1150 0.0 1022151
15:00+12зсз1154 0.0 1019467
18:00+7зсз01185 0.0 102110
21:00+2зсз111349 0.0 102210